Kalamazoo, MI

5:36 AM EST on December 15, 2017 (GMT -0500)
Kalamazoo-Battle Creek International

Weather History for KAZO - September, 2011

Change the Weather History Date:

Friday, September 2, 2011

  Actual Average Record
Temperature  
Mean Temperature 83 °F 68 °F  
Max Temperature 92 °F 78 °F 100 °F (1953)
Min Temperature 74 °F 57 °F 42 °F (2017)
Degree Days  
Heating Degree Days 0 1  
Month to date heating degree days 2  
Since 1 July heating degree days 18  
Cooling Degree Days 18 4  
Month to date cooling degree days 8  
Year to date cooling degree days 619  
Growing Degree Days 33 (Base 50)    
Moisture  
Dew Point 70 °F    
Average Humidity 70    
Maximum Humidity 89    
Minimum Humidity 45    
Precipitation  
Precipitation 0.02 in 0.17 in 0.75 in (1961)
Month to date precipitation 0.02 0.34  
Year to date precipitation 23.93  
Sea Level Pressure  
Sea Level Pressure 29.94 in    
Wind  
Wind Speed 6 mph (SSW)    
Max Wind Speed 20 mph    
Max Gust Speed 28 mph    
Visibility 7 miles    
Events Rain , Thunderstorm    
T = Trace of Precipitation, MM = Missing Value Source: NWS Daily Summary

Daily Weather History Graph

Daily Weather History Graph

Search for Another Location

Airport or City:

Trip Planner

Search our weather history database for the weather conditions in past years. The results will help you decide how hot, cold, wet, or windy it might be!

Date:

Astronomy

Sep. 02, 2011 Rise Set
Actual Time 7:08 AM EDT 8:14 PM EDT
Civil Twilight 6:39 AM EDT 8:43 PM EDT
Nautical Twilight 6:05 AM EDT 9:17 PM EDT
Astronomical Twilight 5:28 AM EDT 9:53 PM EDT
Moon 12:47 PM EDT (9/2) 10:40 PM EDT (9/2)
Length of Visible Light 14h 04m
Length of Day
13h 06m
Waxing Crescent, 27% of the Moon is Illuminated
Sep 2
Waxing Crescent
Sep 4
First Quarter
Sep 12
Full
Sep 20
Last Quarter
Sep 27
New

Hourly Weather History & Observations

Time (EDT) Temp. Heat Index Dew Point Humidity Pressure Visibility Wind Dir Wind Speed Gust Speed Precip Events Conditions
12:53 AM 78.1 °F - 73.0 °F 84% 29.93 in 6.0 mi SSE 3.5 mph - N/A   Haze
1:53 AM 77.0 °F - 73.4 °F 89% 29.94 in 5.0 mi South 4.6 mph - N/A   Clear
2:53 AM 75.9 °F - 72.0 °F 87% 29.91 in 5.0 mi South 6.9 mph - N/A   Clear
3:53 AM 78.8 °F - 71.6 °F 78% 29.92 in 7.0 mi SSW 9.2 mph - N/A   Clear
4:53 AM 77.0 °F - 70.0 °F 79% 29.92 in 7.0 mi SSW 5.8 mph - N/A   Clear
5:53 AM 77.0 °F - 70.0 °F 79% 29.94 in 6.0 mi NE 3.5 mph - N/A   Haze
6:42 AM 78.8 °F - 69.8 °F 74% 30.01 in 7.0 mi NNE 4.6 mph - 0.00 in Rain , Thunderstorm Light Thunderstorms and Rain
6:53 AM 78.1 °F - 70.0 °F 76% 29.98 in 8.0 mi Calm Calm - 0.00 in Thunderstorm Thunderstorm
7:23 AM 77.0 °F - 71.6 °F 83% 30.00 in 7.0 mi ESE 4.6 mph - 0.00 in   Mostly Cloudy
7:53 AM 77.0 °F - 71.6 °F 83% 30.00 in 4.0 mi SW 4.6 mph - N/A Rain Light Rain
8:53 AM 75.9 °F - 71.1 °F 85% 29.96 in 4.0 mi South 8.1 mph - 0.00 in Rain Light Rain
9:53 AM 79.0 °F - 71.1 °F 77% 29.94 in 5.0 mi SSW 10.4 mph - N/A   Haze
10:53 AM 82.9 °F 87.0 °F 70.0 °F 65% 29.94 in 8.0 mi SSW 10.4 mph - N/A   Clear
11:53 AM 87.1 °F 90.6 °F 68.0 °F 53% 29.94 in 10.0 mi WSW 15.0 mph 21.9 mph 0.01 in   Clear
12:53 PM 91.0 °F 95.2 °F 68.0 °F 47% 29.93 in 10.0 mi WSW 9.2 mph 20.7 mph N/A   Clear
1:53 PM 91.9 °F 95.9 °F 68.0 °F 45% 29.94 in 10.0 mi West 13.8 mph 21.9 mph N/A   Clear
2:53 PM 89.6 °F 93.4 °F 68.0 °F 49% 29.96 in 10.0 mi NW 15.0 mph - N/A   Clear
3:53 PM 89.6 °F 94.7 °F 69.8 °F 52% 29.96 in 9.0 mi WNW 9.2 mph - N/A   Clear
4:53 PM 89.6 °F 94.7 °F 69.8 °F 52% 29.94 in 9.0 mi Variable 3.5 mph - N/A   Clear
5:53 PM 89.1 °F 94.1 °F 70.0 °F 53% 29.91 in 9.0 mi SSE 4.6 mph - N/A   Clear
6:53 PM 87.1 °F 92.0 °F 70.0 °F 57% 29.89 in 9.0 mi South 6.9 mph - N/A   Clear
7:53 PM 82.9 °F 87.5 °F 71.1 °F 67% 29.88 in 8.0 mi South 5.8 mph - N/A   Clear
8:53 PM 81.0 °F 84.9 °F 71.1 °F 72% 29.91 in 8.0 mi Calm Calm - N/A   Clear
9:53 PM 78.1 °F - 71.1 °F 79% 29.91 in 7.0 mi Calm Calm - N/A   Clear
10:53 PM 77.0 °F - 71.6 °F 83% 29.93 in 6.0 mi Calm Calm - N/A   Haze
11:53 PM 77.0 °F - 71.1 °F 82% 29.91 in 5.0 mi Calm Calm - N/A   Haze